036  
ASUS45 KBOI 081010  
RWRID  
 
IDAHO REGIONAL WEATHER ROUNDUP  
NATIONAL WEATHER SERVICE BOISE ID  
300 AM MST THU DEC 08 2022  
 
NOTE: "FAIR" INDICATES FEW OR NO CLOUDS BELOW 12000 FEET  
WITH NO SIGNIFICANT WEATHER AND/OR S TO VISIBILITY
 
 
IDZ012-014-081100-  
SOUTHWEST IDAHO  
 
 
CITY SKY/WX TMP DP RH WIND PRES REMARKS
 
BOISE CLEAR 23 19 85 SE9 30.26S WCI 13  
CALDWELL CLOUDY 27 26 96 CALM 30.28S  
MOUNTAIN HOME CLEAR 20 20 97 E5 30.24S WCI 14  

 
 
IDZ016-017-081100-  
SOUTHCENTRAL IDAHO  
 
 
CITY SKY/WX TMP DP RH WIND PRES REMARKS
 
BURLEY CLOUDY 17 15 92 E3 30.22R FOG  
JEROME MOCLDY 19 15 84 E10 30.22R FOG WCI 7  
TWIN FALLS CLEAR 15 11 83 NE3 30.22R  

 
 
IDZ019>023-081100-  
SOUTHEAST IDAHO  
 
 
CITY SKY/WX TMP DP RH WIND PRES REMARKS
 
IDAHO FALLS CLOUDY 12 9 87 CALM 30.23S FOG  
POCATELLO CLEAR 15 10 80 CALM 30.24R  
REXBURG CLOUDY 12 7 80 S7 30.20S HAZE WCI 1  

 
 
IDZ006-010-011-018-031-032-081100-  
CENTRAL IDAHO MOUNTAINS  
 
 
CITY SKY/WX TMP DP RH WIND PRES REMARKS
 
MCCALL NOT AVBL  
HAILEY CLEAR 9 5 85 NW9 30.21R WCI -5  
STANLEY N/A -7 -12 79 CALM 30.16R  
SALMON CLEAR 1 -4 79 CALM 30.26R  
CHALLIS CLEAR -2 -7 79 CALM 30.20R  

 
 
IDZ002-004-006-007-026-081100-  
NORTHERN IDAHO  
 
 
CITY SKY/WX TMP DP RH WIND PRES REMARKS
 
LEWISTON PTCLDY 27 20 75 CALM 30.17R  
LOWELL N/A 23 20 88 S3 30.25R  
COEUR D'ALENE FOG 27 26 96 E5 30.12S VSB 1 WCI 22  
MULLAN PASS CLEAR 20 15 81 S6 29.98R WCI 12  

 
 
 
CLICK HERE TO GO TO PREVIOUS BULLETINS.

The Nexlab ID Page Main Text Page